Regional Weather Roundup
Issued by NWS Mt. Holly, NJ

Home | Current Version | Previous Version | Text Only | Print | Product List | Glossary On
Versions: 1 2 3 4 5 6 7 8 9 10 11 12 13 14 15 16 17 18 19 20 21 22 23 24 25 26 27 28 29 30 31 32 33 34 35 36 37 38 39 40 41 42 43 44 45 46 47 48 49 50
000
ASUS41 KPHI 242010
RWRPHI

REGIONAL WEATHER ROUNDUP
NATIONAL WEATHER SERVICE MOUNT HOLLY NJ
400 PM EDT THU JUL 24 2014

NOTE:  "FAIR" INDICATES FEW OR NO CLOUDS BELOW 12,000 FEET WITH NO
SIGNIFICANT WEATHER AND/OR OBSTRUCTIONS TO VISIBILITY.

 * = STATION DOES NOT REPORT PRECIPITATION (E.G. RAIN, SNOW, ETC.)
        OR FOG.

NJZ015>026-242100-
SOUTHERN NEW JERSEY

CITY           SKY/WX    TMP DP  RH WIND       PRES   REMARKS
POMONA         PTSUNNY   80  61  52 N8        29.85S
RIO GRANDE*    PTSUNNY   77  64  65 W7        29.87S
MILLVILLE      PTSUNNY   81  61  50 N8        29.87S
WRIGHTSTOWN    MOSUNNY   80  60  51 NW10      29.84S
MOUNT HOLLY    MOSUNNY   80  58  46 N7        29.86F
TRENTON        MOSUNNY   80  57  45 VRB7      29.86S

$$
NJZ001>014-242100-
NORTHERN NEW JERSEY

CITY           SKY/WX    TMP DP  RH WIND       PRES   REMARKS
SUSSEX         SUNNY     81  55  40 N7        29.87S
ANDOVER*         N/A     79  56  45 VRB5      29.88F
MORRISTOWN     PTSUNNY   79  57  47 N6        29.86S
NEWARK         PTSUNNY   80  57  45 VRB3      29.84F
TETERBORO      MOSUNNY   83  57  41 NW5       29.84S
CALDWELL       PTSUNNY   81  57  43 N5        29.86S
SOMERVILLE     CLOUDY    80  56  43 N3        29.84F
ALLAIRE*       PTSUNNY   79  63  57 NE9       29.85F
TOMS RIVER*    PTSUNNY   79  61  53 N6        29.85S

$$
PAZ043-044-047-054-055-060>062-066>071-242100-
EASTERN PENNSYLVANIA

CITY           SKY/WX    TMP DP  RH WIND       PRES   REMARKS
PHILADELPHIA   PTSUNNY   83  55  38 NW12      29.86F
NORTH PHILA    MOSUNNY   82  54  37 N8G20     29.88S
BLUE BELL      PTSUNNY   81  59  47 N3        29.86F
DOYLESTOWN     SUNNY     82  56  40 N8        29.87F
QUAKERTOWN*    MOSUNNY   77  55  47 N6        29.89F
POTTSTOWN      MOSUNNY   80  56  43 N9        29.89F
LANCASTER      MOSUNNY   79  58  48 N13       29.90S
COATESVILLE    MOSUNNY   77  55  47 N10G18    29.91S
READING        PTSUNNY   77  53  43 N9        29.89S
ALLENTOWN      MOSUNNY   81  54  39 N9        29.88F
MOUNT POCONO   MOSUNNY   70  50  49 N9        29.94F
HAZLETON       PTSUNNY   72  52  49 N12       29.98S
WILKES BARRE   MOSUNNY   77  50  38 N10G20    29.93S

$$
DEZALL-MDZ008-012-015-019-020-242100-
DELAWARE AND EASTERN MARYLAND

CITY           SKY/WX    TMP DP  RH WIND       PRES   REMARKS
WILMINGTON     MOSUNNY   82  60  47 NW10      29.88S
DOVER          PTSUNNY   78  65  63 N12       29.86S
GEORGETOWN     CLOUDY    76  64  66 VRB5      29.88S
EASTON         PTSUNNY   81  66  61 NE5       29.93S
PATUXENT       CLOUDY    76  67  73 N10       29.89S
OCEAN CITY     CLOUDY    78  68  71 N6        29.87S
WALLOPS ISLAND CLOUDY    77  69  76 E5        29.88S
CAMBRIDGE      MOSUNNY   77  64  65 N7        29.89R

$$
PAZ001-021-NYZ056-072-MDZ011-DCZ001-242100-
OTHER NEARBY LOCATIONS

CITY           SKY/WX    TMP DP  RH WIND       PRES   REMARKS
HARRISBURG     PTSUNNY   80  53  39 N10       29.91R
STATE COLLEGE  PTSUNNY   73  52  46 N10       29.98S
WILLIAMSPORT   PTSUNNY   77  49  37 NW9       29.94S
BINGHAMTON     PTSUNNY   66  51  58 N12G20    29.98F
NEW YORK CITY  MOSUNNY   79  59  50 E8        29.87F
BALTIMORE      PTSUNNY   80  61  52 NW9       29.89S
WASHINGTON DC  PTSUNNY   83  61  47 VRB7      29.90F

$$


USA.gov is the U.S. government's official web portal to all federal, state and local government web resources and services.